Volver al catálogo

HULIANWANG DIGUI-39

ActivoComunicacionesPO
NORAD 64960·PAYLOAD·🇨🇳 China

Lanzado Jul 27, 2025 desde Taiyuan Satellite Launch Center

Loading…

Próximos Pases (próximas 24 horas)

TLE

ActualizadoSource: Space-Track

Época: Sep 14, 2026, 23:25 UTC

1 64960U 25159E   26257.97626025 -.00000064  00000-0 -18261-3 0  9999
2 64960  86.4890 252.0417 0002077  88.2946 271.8425 13.24403689 55016

Sigue HULIANWANG DIGUI-39 en tiempo real con AllMySat

Download on the App Store